Wind_Speed
15 15 14 14 16 16 15 16 16 15 15 14 14 14 13 12 12 12 12 11 11 11 11 11 11 10 10 10 10 9 9 9 9 9 9 9 10 10 10 9 8 8 8 8 7 7 6 6 6
15 15 14 15 16 15 15 15 15 15 14 14 14 14 13 13 13 12 12 12 12 11 11 11 10 10 10 10 10 9 9 9 8 9 9 9 9 9 9 8 8 8 8 7 7 7 7 6 6
14 14 14 15 15 14 14 14 14 14 13 13 13 13 13 13 13 12 12 12 12 11 11 10 10 10 10 10 9 9 9 8 8 8 8 8 8 8 8 7 7 7 7 7 7 7 7 7 6
13 13 14 15 14 14 14 14 14 14 13 13 12 12 13 13 13 12 11 11 11 11 11 10 10 9 10 9 9 8 8 8 7 7 7 7 7 7 7 6 6 6 6 7 7 7 7 7 6
11 12 14 13 13 13 14 14 14 14 14 13 13 13 13 12 12 11 11 10 10 11 10 10 9 9 9 9 9 8 8 7 7 6 6 6 6 5 5 6 6 6 6 7 7 7 7 7 6
11 12 12 12 13 13 13 14 14 14 13 13 13 12 12 12 11 11 10 10 10 10 10 9 9 9 9 9 9 8 7 6 6 5 5 5 4 5 4 5 6 6 6 6 6 7 7 6 6
11 12 12 11 12 12 13 13 13 13 13 13 13 12 11 11 11 11 10 10 9 9 9 9 9 9 8 9 8 8 7 7 6 5 5 4 4 3 3 4 4 4 5 5 6 6 6 6 5
11 11 12 11 11 11 11 12 12 13 13 13 13 12 12 11 10 10 10 9 9 9 9 9 9 8 8 8 8 8 8 7 6 5 5 4 4 3 3 3 4 4 4 4 5 5 5 6 5
10 12 10 10 10 10 11 12 12 12 12 12 12 12 11 11 11 11 10 9 9 9 8 8 8 8 8 8 8 7 7 7 6 5 4 3 3 2 2 3 3 4 4 4 5 5 6 5 5
9 11 9 9 10 10 10 11 11 11 11 10 11 11 11 10 11 11 10 10 9 8 8 8 8 8 8 8 7 7 7 7 6 5 5 4 3 3 3 2 2 3 3 3 4 5 6 6 5
7 8 8 8 9 9 9 10 9 10 10 9 10 10 10 10 10 10 9 9 9 8 7 7 7 7 7 7 7 7 6 6 6 5 5 5 3 2 2 1 1 1 1 2 3 4 5 5 5
6 6 6 7 7 7 8 8 8 8 9 8 9 9 9 9 9 9 8 8 7 7 6 6 6 6 6 6 6 6 6 6 5 5 5 4 4 3 2 1 1 0 1 2 3 4 4 5 6
6 5 4 4 5 5 6 6 6 7 7 7 7 8 7 8 8 8 7 7 6 5 5 4 5 5 5 5 6 5 5 5 5 5 4 3 3 3 3 2 1 1 2 3 4 4 4 5 6
5 4 3 3 3 3 4 4 4 5 5 5 6 6 6 7 7 7 6 6 6 5 5 4 4 3 4 4 5 5 5 5 5 4 4 3 2 2 2 2 2 2 3 4 5 5 6 5 6
5 4 3 2 3 3 3 2 2 2 3 3 4 5 5 5 5 6 5 4 5 5 5 4 4 3 3 4 4 4 4 4 4 4 3 2 3 3 3 3 3 3 4 4 5 6 6 6 6
5 4 3 2 3 3 2 1 0 0 1 2 3 3 3 3 4 5 5 4 4 4 4 4 3 3 3 3 3 3 3 3 3 3 3 3 3 3 4 4 4 5 5 5 5 6 6 6 6
5 5 5 4 4 3 3 2 2 2 2 2 3 3 3 4 4 5 5 3 3 3 3 3 3 3 3 4 3 3 3 4 4 4 4 4 4 4 4 5 5 6 6 7 7 7 8 8 8
7 7 7 6 6 4 4 4 4 4 4 4 4 4 5 5 5 5 4 3 3 3 4 3 3 3 3 4 4 4 4 5 5 5 6 6 6 6 6 6 6 7 8 8 8 8 9 9 9
8 8 8 8 8 7 6 6 6 6 5 5 6 6 6 6 6 5 5 3 3 4 4 4 4 4 4 5 5 6 6 7 7 6 7 7 7 7 8 8 8 8 9 9 9 10 10 10 10
9 8 9 9 8 8 8 8 7 7 7 7 7 7 7 7 6 5 4 4 4 4 5 5 4 5 5 6 7 7 8 8 8 8 8 9 9 9 9 9 9 9 10 10 10 10 11 11 11
11 10 10 10 9 9 9 8 8 7 8 8 8 7 7 6 6 6 6 6 6 6 6 6 6 6 7 8 8 9 9 10 10 10 10 10 10 10 10 10 11 11 11 11 11 11 11 12 12
12 12 11 10 9 10 10 10 10 9 8 9 8 7 7 7 6 6 7 8 8 7 7 8 7 8 9 9 9 10 11 11 11 12 12 11 11 11 12 12 12 12 12 12 12 12 13 13 13
13 13 12 12 11 10 11 11 11 10 9 9 9 8 9 8 8 8 8 9 9 9 9 9 9 9 10 10 10 11 12 12 13 13 13 13 12 12 12 13 13 14 15 14 14 14 14 14 14
14 14 14 14 12 12 12 12 11 11 11 10 10 10 10 10 9 9 9 10 10 11 10 10 10 11 11 11 11 12 12 13 14 13 14 14 14 13 13 14 14 15 15 15 15 15 14 15 15
16 13 13 13 14 14 14 14 13 13 13 12 12 12 12 11 11 11 11 11 11 12 11 12 12 12 12 12 13 13 14 14 15 15 15 15 15 15 14 15 15 16 16 16 16 16 16 16 16
17 15 15 14 14 14 16 15 15 15 14 13 13 12 12 12 11 11 12 12 12 13 13 13 13 14 14 14 14 14 14 15 16 16 16 17 16 15 15 16 16 17 17 17 17 17 17 17 18
19 17 16 16 15 14 16 17 16 15 14 14 14 13 13 13 13 13 13 14 14 13 14 15 15 15 15 15 16 15 15 16 17 18 18 18 17 16 16 17 17 18 18 19 19 18 18 18 18
20 19 18 17 16 15 16 17 17 16 15 15 14 14 14 14 15 15 16 15 15 15 15 15 15 15 16 17 17 17 17 17 18 18 18 18 17 16 17 18 19 19 19 20 20 19 20 20 20
21 20 20 19 18 17 17 17 18 18 16 16 16 16 15 15 16 16 16 16 16 17 17 17 17 17 18 19 19 19 19 19 18 18 18 18 18 19 19 20 20 20 20 20 20 21 21 21 21
21 21 20 20 20 19 18 18 19 18 17 16 16 17 17 17 17 17 17 17 18 18 18 18 19 19 20 20 20 19 19 20 19 19 18 18 19 19 20 21 20 20 21 21 22 22 21 21 21
Wind_Direction
81 84 87 88 87 84 85 84 82 80 80 81 80 81 82 83 87 89 91 91 93 93 93 91 91 94 98 101 102 106 110 113 112 114 119 126 130 135 137 137 137 139 142 147 151 149 150 150 152
85 84 87 88 86 87 85 84 82 80 81 81 79 79 80 81 85 89 91 92 93 92 90 90 90 93 97 99 99 100 107 112 110 113 116 124 130 135 136 135 135 141 146 152 155 156 160 160 160
86 85 86 87 87 89 87 84 81 79 81 81 78 79 80 81 83 87 90 90 91 90 90 90 89 91 97 99 98 99 105 108 110 111 115 119 125 134 138 140 143 148 152 156 160 165 165 165 167
89 86 86 86 85 86 84 83 79 78 77 79 79 78 79 79 80 84 86 87 87 89 89 89 90 92 96 97 94 94 102 100 105 109 117 122 125 131 141 147 153 159 160 164 168 173 176 174 171
90 87 85 84 85 85 84 83 79 75 73 75 78 78 76 76 77 80 82 85 86 88 89 88 90 93 95 93 93 92 97 97 100 107 115 121 130 138 142 153 160 162 163 168 174 179 182 178 179
87 86 93 90 88 86 84 81 78 74 74 76 80 81 77 76 76 77 78 83 86 89 88 88 89 89 90 90 88 89 88 94 98 102 110 113 124 139 142 152 163 167 169 170 174 180 185 187 191
88 92 92 91 91 86 83 79 75 73 72 74 78 79 77 74 75 77 77 79 84 89 87 86 87 86 86 87 87 87 86 87 96 100 99 105 114 126 139 144 156 168 169 171 173 175 184 191 197
90 91 88 90 92 87 83 76 72 73 73 78 78 77 78 76 76 78 76 77 83 87 85 83 81 82 83 84 84 82 81 83 92 98 101 104 113 117 119 133 138 156 170 180 185 182 186 201 211
92 92 93 93 90 86 82 76 73 74 76 79 81 78 76 76 77 76 75 74 78 82 82 80 78 79 80 80 79 75 75 79 85 89 94 101 102 115 119 133 135 142 167 192 205 204 207 213 225
103 103 102 96 90 87 84 78 76 75 78 81 80 76 76 77 73 72 70 70 75 79 81 80 76 74 74 76 74 70 70 73 73 72 74 79 87 105 120 150 148 149 175 198 214 215 219 225 231
117 110 108 101 93 90 87 82 77 75 80 81 77 74 75 74 71 67 64 65 70 74 76 77 76 74 74 74 71 68 66 64 60 60 67 70 75 90 92 134 147 153 192 229 231 229 237 240 238
132 119 111 102 94 92 89 82 73 76 78 79 78 75 72 67 64 60 60 62 65 70 75 76 71 70 72 69 64 63 58 53 51 57 68 77 79 75 66 55 51 292 282 281 268 264 256 252 250
144 137 128 113 102 102 97 86 74 73 74 75 74 71 68 65 61 57 57 57 57 60 67 74 67 67 67 63 57 56 52 51 51 53 61 66 66 57 42 32 12 301 284 273 274 270 265 259 256
151 147 147 138 131 130 120 100 78 68 70 67 66 66 64 59 52 48 50 53 54 58 61 66 64 67 64 58 52 47 45 45 47 53 51 43 33 25 6 343 327 302 288 283 284 281 277 274 266
165 154 162 172 165 161 155 120 73 65 65 58 52 55 55 50 40 31 34 46 54 59 60 62 56 58 55 49 42 39 34 35 38 41 36 22 8 356 333 320 310 299 289 288 292 293 282 275 268
182 172 188 208 199 194 193 213 325 347 25 29 22 29 31 23 17 13 10 25 40 47 49 55 50 46 41 31 21 22 14 13 14 12 11 6 355 344 326 312 309 304 294 293 292 289 287 282 274
201 210 223 228 228 232 223 252 263 269 287 304 331 347 347 347 356 1 353 354 8 13 24 33 24 14 6 2 355 355 351 350 348 344 345 349 339 328 321 319 318 312 305 297 294 292 291 284 281
211 220 229 237 244 242 240 260 262 273 291 298 307 314 320 325 330 328 328 313 319 332 346 347 346 336 337 351 350 343 335 332 331 327 325 328 330 326 323 325 320 315 308 300 295 295 292 288 285
223 224 232 243 250 250 249 262 267 269 284 296 301 303 304 311 310 312 316 305 308 311 316 322 325 322 322 328 328 327 325 323 319 313 310 310 311 312 311 314 315 314 309 303 300 295 292 288 290
233 237 243 253 255 250 254 263 268 276 281 295 302 301 301 307 305 303 304 306 307 309 309 314 310 310 310 312 314 313 316 315 313 312 306 303 303 306 307 305 305 308 307 304 304 300 293 291 291
237 243 251 259 258 259 260 270 273 275 283 291 298 293 300 304 299 296 292 297 302 303 303 307 300 301 302 302 305 309 310 312 307 303 302 299 299 299 301 301 300 303 305 302 300 299 296 294 290
241 245 250 258 261 264 260 264 272 277 281 286 291 288 294 296 294 292 289 293 296 297 298 301 300 299 300 300 302 304 306 309 307 302 298 295 295 297 297 299 299 301 305 302 298 295 296 296 293
239 247 250 257 262 263 265 264 270 277 280 284 288 286 288 288 288 288 290 290 292 294 297 297 296 298 301 302 301 300 303 308 307 303 298 294 291 296 300 300 301 299 299 299 297 296 296 296 294
242 249 255 257 261 261 263 266 267 272 277 278 279 285 287 284 282 287 291 290 292 292 292 294 294 297 300 301 301 302 303 304 306 303 298 298 294 299 301 301 300 301 302 300 297 296 294 292 292
243 248 255 260 260 262 264 264 263 267 275 278 278 280 284 283 281 285 287 287 289 292 289 290 290 293 295 296 297 298 300 300 300 301 300 299 298 299 299 301 301 301 301 301 299 297 293 292 292
243 245 247 254 258 264 266 265 266 271 276 276 276 276 279 281 281 283 287 288 287 287 286 285 287 289 291 292 292 292 295 296 297 298 302 301 300 297 299 301 300 300 300 300 300 299 296 294 294
245 246 249 256 259 261 264 266 269 274 275 276 274 271 274 277 279 284 289 287 284 285 285 285 284 286 288 290 291 292 293 295 296 296 297 298 297 297 299 300 300 300 300 300 300 300 298 296 295
246 249 251 250 251 254 265 271 272 273 273 275 274 273 274 275 277 279 283 282 281 282 285 285 284 284 287 290 291 291 291 293 294 295 295 295 299 299 300 299 300 301 301 300 299 300 298 295 294
249 249 250 249 248 252 260 266 270 273 272 271 273 274 275 276 275 275 278 278 278 279 281 284 283 283 285 287 287 287 288 291 291 293 296 295 297 299 297 297 299 301 301 300 298 299 299 296 294
247 247 250 252 255 255 256 264 268 272 273 272 274 275 276 277 274 273 274 276 279 279 281 283 284 283 283 284 285 288 290 289 288 290 293 293 298 300 298 297 298 297 299 299 298 296 297 296 294
Height
5905 5904 5904 5905 5905 5905 5904 5903 5902 5901 5900 5900 5899 5898 5897 5897 5897 5898 5896 5894 5894 5894 5893 5893 5892 5892 5891 5891 5890 5890 5890 5890 5889 5889 5889 5889 5889 5890 5890 5891 5891 5892 5892 5893 5894 5895 5895 5896 5896
5907 5906 5907 5907 5907 5907 5906 5905 5904 5903 5902 5901 5900 5900 5899 5898 5898 5897 5896 5896 5896 5895 5895 5894 5894 5894 5893 5892 5892 5891 5891 5891 5891 5890 5890 5890 5890 5890 5891 5891 5892 5892 5893 5893 5894 5895 5895 5896 5896
5909 5909 5910 5909 5909 5908 5908 5907 5905 5904 5903 5903 5902 5901 5901 5900 5899 5899 5898 5898 5897 5897 5896 5896 5895 5895 5894 5894 5893 5893 5892 5892 5891 5891 5891 5891 5891 5891 5891 5892 5892 5892 5893 5894 5894 5895 5896 5896 5896
5911 5912 5912 5912 5911 5910 5909 5908 5907 5906 5905 5904 5903 5903 5902 5901 5901 5900 5899 5899 5898 5898 5898 5897 5897 5896 5896 5895 5894 5894 5893 5893 5893 5892 5892 5892 5892 5892 5892 5892 5892 5893 5893 5894 5894 5895 5895 5896 5896
5913 5914 5914 5914 5913 5912 5911 5910 5909 5908 5907 5905 5905 5904 5903 5903 5902 5902 5901 5900 5900 5899 5899 5898 5898 5898 5897 5896 5896 5895 5894 5894 5893 5893 5893 5893 5893 5892 5892 5892 5892 5892 5893 5894 5894 5895 5895 5895 5896
5915 5915 5916 5915 5915 5914 5913 5912 5911 5910 5908 5907 5906 5906 5905 5904 5904 5903 5902 5902 5901 5901 5900 5900 5899 5899 5898 5897 5897 5896 5895 5895 5894 5894 5893 5893 5893 5893 5893 5892 5892 5892 5893 5893 5894 5894 5895 5895 5896
5917 5917 5917 5917 5917 5916 5915 5914 5913 5911 5910 5909 5908 5907 5907 5906 5905 5904 5904 5903 5902 5902 5901 5901 5900 5900 5899 5898 5898 5897 5896 5896 5895 5894 5894 5894 5893 5893 5893 5892 5892 5892 5892 5892 5893 5894 5894 5895 5895
5918 5920 5919 5919 5919 5918 5917 5915 5914 5913 5912 5911 5910 5909 5908 5908 5907 5906 5905 5904 5904 5903 5903 5902 5902 5901 5900 5899 5899 5898 5897 5896 5896 5895 5895 5894 5894 5893 5893 5892 5892 5892 5892 5892 5893 5893 5894 5894 5894
5920 5922 5922 5921 5920 5920 5919 5917 5916 5915 5914 5913 5912 5911 5910 5909 5908 5907 5907 5906 5905 5905 5904 5904 5903 5902 5901 5900 5900 5899 5898 5897 5897 5896 5895 5895 5894 5894 5893 5893 5892 5892 5892 5892 5892 5893 5893 5894 5894
5922 5923 5923 5922 5922 5921 5920 5919 5918 5916 5915 5915 5914 5913 5912 5911 5910 5909 5908 5907 5906 5906 5906 5905 5904 5904 5903 5902 5901 5900 5899 5898 5897 5897 5896 5895 5894 5894 5893 5893 5893 5893 5893 5892 5892 5892 5893 5893 5893
5923 5923 5923 5923 5923 5922 5921 5920 5919 5918 5917 5917 5915 5915 5914 5913 5912 5911 5910 5909 5908 5907 5907 5906 5905 5905 5904 5903 5902 5901 5900 5899 5898 5897 5896 5895 5895 5894 5894 5893 5893 5893 5892 5892 5891 5891 5892 5892 5892
5924 5924 5924 5924 5924 5923 5922 5922 5921 5920 5919 5918 5917 5916 5915 5914 5913 5912 5911 5910 5909 5908 5908 5907 5906 5906 5905 5904 5903 5902 5901 5900 5899 5898 5897 5896 5895 5895 5894 5893 5893 5893 5892 5892 5891 5891 5891 5891 5891
5924 5925 5925 5925 5925 5924 5923 5923 5922 5921 5920 5919 5918 5917 5916 5915 5914 5913 5912 5911 5910 5909 5909 5908 5907 5907 5906 5905 5904 5903 5902 5901 5900 5898 5897 5897 5896 5895 5894 5894 5893 5893 5892 5892 5891 5891 5890 5890 5890
5925 5925 5925 5925 5925 5925 5924 5924 5923 5922 5921 5920 5919 5918 5917 5916 5915 5914 5913 5912 5911 5910 5909 5909 5908 5907 5907 5906 5905 5904 5903 5902 5900 5899 5898 5897 5896 5895 5895 5894 5894 5893 5892 5891 5891 5890 5890 5889 5889
5924 5926 5926 5925 5925 5925 5925 5925 5924 5923 5922 5921 5920 5919 5918 5917 5916 5914 5913 5913 5911 5910 5910 5909 5909 5908 5907 5907 5906 5905 5903 5902 5901 5900 5898 5897 5896 5895 5895 5894 5893 5892 5891 5891 5890 5889 5888 5888 5887
5925 5926 5927 5926 5925 5925 5927 5926 5925 5923 5923 5922 5921 5920 5918 5917 5916 5915 5914 5913 5912 5911 5910 5910 5909 5908 5908 5907 5906 5905 5904 5903 5901 5900 5899 5897 5896 5895 5894 5893 5892 5891 5890 5889 5889 5888 5887 5886 5885
5925 5927 5927 5927 5925 5925 5926 5925 5925 5923 5923 5922 5921 5920 5919 5918 5917 5915 5914 5913 5912 5912 5911 5910 5910 5909 5908 5906 5905 5904 5903 5902 5901 5900 5899 5897 5896 5895 5894 5893 5891 5890 5889 5888 5887 5886 5885 5885 5884
5925 5926 5926 5926 5925 5925 5925 5925 5924 5923 5923 5922 5921 5920 5919 5918 5917 5915 5914 5913 5912 5912 5911 5910 5909 5908 5907 5906 5905 5904 5903 5902 5900 5899 5898 5897 5895 5894 5893 5892 5890 5889 5888 5886 5885 5884 5883 5883 5882
5923 5923 5924 5924 5924 5924 5924 5923 5923 5923 5922 5921 5920 5920 5919 5918 5916 5915 5913 5912 5912 5911 5910 5909 5909 5908 5907 5906 5905 5903 5902 5901 5899 5898 5897 5896 5895 5893 5892 5891 5889 5888 5886 5885 5884 5882 5881 5880 5880
5920 5922 5922 5922 5922 5922 5922 5922 5922 5922 5921 5920 5919 5918 5918 5917 5916 5914 5913 5912 5912 5911 5910 5909 5908 5907 5906 5905 5904 5903 5901 5900 5898 5897 5895 5894 5893 5892 5890 5889 5887 5886 5884 5883 5882 5881 5879 5878 5877
5918 5920 5920 5920 5920 5920 5921 5921 5921 5920 5920 5919 5917 5917 5916 5916 5915 5914 5913 5912 5911 5910 5909 5908 5907 5906 5905 5904 5902 5901 5900 5898 5897 5895 5893 5892 5891 5889 5888 5887 5886 5884 5883 5881 5880 5878 5877 5876 5875
5916 5917 5917 5918 5918 5919 5919 5921 5919 5918 5918 5917 5916 5916 5915 5914 5913 5912 5912 5911 5910 5909 5908 5906 5905 5904 5903 5902 5901 5899 5898 5896 5894 5892 5891 5889 5888 5887 5886 5884 5883 5882 5880 5878 5877 5876 5874 5873 5872
5912 5913 5914 5915 5916 5917 5917 5918 5919 5916 5916 5915 5914 5914 5913 5913 5912 5911 5910 5909 5908 5907 5906 5905 5904 5902 5901 5900 5899 5897 5895 5893 5892 5890 5888 5886 5885 5884 5883 5881 5880 5878 5877 5875 5874 5872 5871 5869 5868
5909 5910 5911 5912 5913 5914 5915 5915 5916 5914 5913 5913 5912 5911 5911 5910 5910 5909 5908 5907 5906 5905 5904 5903 5902 5900 5899 5898 5896 5895 5893 5891 5889 5887 5884 5883 5881 5880 5879 5878 5876 5875 5873 5871 5870 5868 5867 5865 5864
5906 5908 5910 5910 5911 5912 5911 5911 5912 5911 5910 5910 5909 5908 5908 5907 5907 5906 5906 5905 5904 5903 5902 5900 5899 5898 5897 5896 5894 5892 5890 5888 5886 5884 5882 5880 5878 5877 5875 5874 5872 5871 5869 5867 5866 5864 5863 5861 5859
5902 5905 5907 5909 5909 5909 5907 5907 5908 5907 5906 5906 5905 5905 5905 5904 5904 5903 5903 5902 5901 5900 5899 5898 5897 5895 5894 5892 5891 5889 5887 5885 5882 5880 5878 5877 5875 5873 5872 5870 5868 5867 5865 5863 5862 5860 5858 5857 5855
5898 5899 5902 5904 5903 5904 5904 5903 5903 5902 5902 5902 5902 5902 5901 5901 5900 5900 5899 5898 5897 5896 5895 5894 5893 5892 5891 5889 5887 5885 5883 5881 5879 5877 5875 5873 5871 5869 5868 5866 5864 5863 5861 5859 5857 5855 5854 5852 5850
5893 5895 5897 5898 5899 5900 5900 5899 5899 5898 5898 5898 5898 5898 5898 5897 5897 5896 5895 5894 5893 5893 5892 5891 5889 5888 5886 5885 5883 5881 5879 5877 5875 5872 5870 5869 5867 5865 5864 5862 5860 5858 5856 5854 5852 5850 5849 5847 5845
5888 5889 5890 5892 5893 5895 5896 5898 5895 5894 5894 5894 5894 5893 5893 5893 5892 5892 5891 5890 5889 5888 5887 5886 5885 5884 5882 5880 5878 5876 5874 5872 5870 5868 5866 5864 5863 5861 5859 5857 5855 5853 5851 5849 5847 5845 5843 5841 5839
5882 5884 5886 5887 5887 5888 5890 5894 5889 5889 5889 5889 5889 5888 5888 5888 5887 5887 5886 5886 5885 5884 5883 5881 5880 5879 5877 5875 5872 5871 5869 5867 5865 5863 5861 5860 5858 5856 5854 5852 5850 5848 5846 5844 5842 5839 5837 5836 5834